Weather History for Jefferson, NC

Change the Weather History Date:

Monday, April 15, 2013

  Actual Average Record
Temperature  
Mean Temperature 50 °F -  
Max Temperature 53 °F 63 °F 82 °F (1972)
Min Temperature 48 °F 40 °F 23 °F (1971)
Degree Days  
Heating Degree Days 14    
Moisture  
Dew Point 48 °F    
Average Humidity 92    
Maximum Humidity 95    
Minimum Humidity 63    
Precipitation  
Precipitation 0.01 in - - ()
Sea Level Pressure  
Sea Level Pressure 30.12 in    
Wind  
Wind Speed 3 mph (SE)    
Max Wind Speed 10 mph    
Max Gust Speed 17 mph    
Visibility 3 miles    
Events Fog , Rain    
Averages and records for this station are not official NWS values.
T = Trace of Precipitation, MM = Missing Value Source: NWS Daily Summary

Daily Weather History Graph

Daily Weather History Graph

Search for Another Location

Airport:

Trip Planner

Search our weather history database for the weather conditions in past years. The results will help you decide how hot, cold, wet, or windy it might be!

Date:

Astronomy

Apr. 15, 2013 Rise Set
Actual Time 6:51 AM EDT 8:00 PM EDT
Civil Twilight 6:25 AM EDT 8:26 PM EDT
Nautical Twilight 5:53 AM EDT 8:58 PM EDT
Astronomical Twilight 5:20 AM EDT 9:31 PM EDT
Moon 10:21 AM EDT (4/15) 12:06 AM EDT (4/15)
Length of Visible Light 14h 01m
Length of Day
13h 08m
Waxing Crescent, 24% of the Moon is Illuminated
Apr 15
Waxing Crescent
Apr 18
First Quarter
Apr 25
Full
May 2
Last Quarter
May 9
New

Hourly Weather History & Observations

Time (EDT) Temp. Dew Point Humidity Pressure Visibility Wind Dir Wind Speed Gust Speed Precip Events Conditions
12:15 AM 53.8 °F 41.4 °F 63% 30.05 in 10.0 mi SSE 4.6 mph - N/A   Overcast
12:35 AM 53.2 °F 42.3 °F 66% 30.05 in 10.0 mi SE 5.8 mph - N/A   Overcast
12:55 AM 52.7 °F 42.4 °F 68% 30.05 in 10.0 mi SE 10.4 mph 17.3 mph N/A   Overcast
1:15 AM 51.4 °F 44.6 °F 77% 30.06 in 10.0 mi SSE 4.6 mph - N/A Rain Light Rain
1:35 AM 50.0 °F 45.7 °F 85% 30.05 in 7.0 mi SSE 3.5 mph - 0.01 in Rain Rain
1:55 AM 49.3 °F 46.0 °F 89% 30.05 in 10.0 mi SSE 4.6 mph - 0.01 in Rain Light Rain
2:15 AM 49.1 °F 46.4 °F 90% 30.05 in 7.0 mi SSE 3.5 mph - N/A   Drizzle
2:35 AM 49.1 °F 46.6 °F 91% 30.04 in 4.0 mi SE 5.8 mph - N/A   Heavy Drizzle
2:55 AM 48.6 °F 46.6 °F 93% 30.04 in 3.0 mi SE 6.9 mph - N/A   Drizzle
3:15 AM 48.2 °F 46.0 °F 92% 30.04 in 4.0 mi SE 4.6 mph - N/A   Drizzle
3:35 AM 48.2 °F 46.0 °F 92% 30.04 in 4.0 mi SE 6.9 mph - N/A   Drizzle
3:55 AM 48.4 °F 46.4 °F 93% 30.03 in 4.0 mi SE 5.8 mph - N/A   Drizzle
4:15 AM 48.4 °F 46.4 °F 93% 30.03 in 4.0 mi SSE 6.9 mph - N/A   Drizzle
4:35 AM 48.7 °F 46.9 °F 93% 30.04 in 3.0 mi SE 4.6 mph - N/A   Heavy Drizzle
4:55 AM 48.7 °F 46.9 °F 93% 30.04 in 2.0 mi SSE 3.5 mph - N/A   Drizzle
5:15 AM 48.9 °F 47.1 °F 93% 30.04 in 1.2 mi Calm Calm - N/A Rain Rain
5:35 AM 48.7 °F 47.1 °F 94% 30.04 in 4.0 mi SE 3.5 mph - N/A   Drizzle
5:55 AM 48.4 °F 46.8 °F 94% 30.04 in 4.0 mi SE 4.6 mph - N/A Rain Rain
6:15 AM 48.4 °F 46.8 °F 94% 30.04 in 7.0 mi SE 3.5 mph - N/A   Light Drizzle
6:35 AM 48.2 °F 46.6 °F 94% 30.05 in 4.0 mi Calm Calm - N/A   Light Drizzle
6:55 AM 48.2 °F 46.6 °F 94% 30.06 in 7.0 mi Calm Calm - N/A   Overcast
7:15 AM 48.2 °F 46.6 °F 94% 30.07 in 4.0 mi Calm Calm - N/A   Drizzle
7:35 AM 48.2 °F 46.4 °F 93% 30.08 in 1.0 mi Calm Calm - N/A   Drizzle
7:55 AM 48.2 °F 46.4 °F 93% 30.09 in 0.2 mi Calm Calm - N/A   Heavy Drizzle
8:15 AM 48.2 °F 46.4 °F 93% 30.09 in 1.0 mi Calm Calm - N/A   Drizzle
8:35 AM 48.2 °F 46.6 °F 94% 30.09 in 1.2 mi Calm Calm - N/A   Drizzle
8:55 AM 48.4 °F 46.8 °F 94% 30.10 in 2.0 mi Calm Calm - N/A   Light Drizzle
9:15 AM 48.6 °F 47.1 °F 95% 30.11 in 1.5 mi Calm Calm - N/A   Drizzle
9:35 AM 48.6 °F 46.9 °F 94% 30.11 in 1.5 mi Calm Calm - N/A   Overcast
9:55 AM 49.1 °F 47.3 °F 93% 30.11 in 1.8 mi Calm Calm - N/A   Light Drizzle
10:15 AM 48.7 °F 47.3 °F 95% 30.11 in 2.0 mi Calm Calm - N/A   Overcast
10:35 AM 49.1 °F 47.5 °F 94% 30.13 in 1.8 mi Calm Calm - N/A Rain Light Rain
10:55 AM 49.5 °F 47.8 °F 94% 30.13 in 2.5 mi NE 3.5 mph - N/A   Overcast
11:15 AM 49.8 °F 48.2 °F 94% 30.13 in 2.0 mi Calm Calm - N/A   Overcast
11:35 AM 50.2 °F 48.6 °F 94% 30.13 in 1.5 mi Calm Calm - N/A   Overcast
11:55 AM 50.7 °F 48.9 °F 94% 30.13 in 2.0 mi Calm Calm - N/A   Overcast
12:15 PM 50.9 °F 49.1 °F 94% 30.14 in 2.5 mi Calm Calm - N/A   Drizzle
12:35 PM 51.1 °F 49.1 °F 93% 30.14 in 1.5 mi East 3.5 mph - N/A Rain Rain
12:55 PM 50.9 °F 49.1 °F 94% 30.14 in 1.5 mi East 5.8 mph - N/A   Overcast
1:15 PM 50.9 °F 48.7 °F 92% 30.15 in 1.5 mi East 6.9 mph - N/A Rain Light Rain
1:35 PM 51.3 °F 49.3 °F 93% 30.15 in 7.0 mi ESE 8.1 mph - N/A   Overcast
1:55 PM 51.6 °F 49.1 °F 91% 30.14 in 10.0 mi ESE 4.6 mph - N/A   Overcast
2:15 PM 50.9 °F 48.7 °F 92% 30.16 in 3.0 mi ESE 4.6 mph - N/A   Overcast
2:35 PM 50.9 °F 48.9 °F 93% 30.15 in 2.0 mi SSE 3.5 mph - N/A   Overcast
2:55 PM 50.9 °F 49.1 °F 94% 30.16 in 3.0 mi SSE 3.5 mph - N/A   Overcast
3:15 PM 51.8 °F 49.5 °F 92% 30.16 in 10.0 mi SSE 4.6 mph - N/A   Overcast
3:35 PM 52.0 °F 49.5 °F 91% 30.16 in 10.0 mi Calm Calm - N/A   Overcast
3:55 PM 51.3 °F 49.1 °F 92% 30.15 in 3.0 mi Calm Calm - N/A   Overcast
4:15 PM 51.1 °F 49.1 °F 93% 30.15 in 3.0 mi SSE 4.6 mph - N/A   Overcast
4:35 PM 50.9 °F 49.1 °F 94% 30.16 in 2.0 mi SE 3.5 mph - N/A   Overcast
5:15 PM 51.3 °F 49.3 °F 93% 30.15 in 7.0 mi SSE 3.5 mph - N/A   Overcast
5:35 PM 51.3 °F 49.3 °F 93% 30.15 in 7.0 mi SSE 3.5 mph - N/A   Overcast
6:15 PM 51.3 °F 49.3 °F 93% 30.17 in 0.5 mi SSE 3.5 mph - N/A Fog Fog
6:35 PM 51.1 °F 49.3 °F 94% 30.17 in 0.2 mi SE 3.5 mph - N/A Fog Fog
7:15 PM 50.9 °F 49.1 °F 94% 30.18 in 0.2 mi Calm Calm - N/A Fog Fog
7:55 PM 50.9 °F 49.3 °F 94% 30.19 in 0.2 mi Calm Calm - N/A Fog Fog
8:15 PM 50.9 °F 49.1 °F 94% 30.20 in 0.2 mi Calm Calm - N/A Fog Fog
8:35 PM 50.9 °F 49.1 °F 94% 30.20 in 0.2 mi SSE 3.5 mph - N/A Fog Fog
8:55 PM 50.9 °F 49.1 °F 94% 30.21 in 0.2 mi Calm Calm - N/A Fog Fog
9:15 PM 50.9 °F 49.1 °F 94% 30.21 in 0.2 mi Calm Calm - N/A Rain Light Rain
9:35 PM 50.9 °F 49.1 °F 94% 30.22 in 0.2 mi Calm Calm - N/A Fog Fog
9:55 PM 50.9 °F 49.1 °F 94% 30.23 in 0.2 mi Calm Calm - N/A Fog Fog
10:15 PM 50.9 °F 49.3 °F 94% 30.24 in 0.2 mi Calm Calm - N/A Fog Fog
10:35 PM 50.9 °F 49.3 °F 94% 30.24 in 0.2 mi Calm Calm - N/A Fog Fog
10:55 PM 50.9 °F 49.3 °F 94% 30.24 in 0.2 mi Calm Calm - N/A Fog Fog
11:15 PM 50.9 °F 49.3 °F 94% 30.25 in 0.2 mi Calm Calm - N/A Fog Fog
11:35 PM 50.9 °F 49.3 °F 94% 30.25 in 0.2 mi Calm Calm - N/A Fog Fog
11:55 PM 50.9 °F 49.3 °F 94% 30.25 in 0.5 mi Calm Calm - N/A Fog Fog